Date String (YYYY-MM-DD hh:mm:ss) UTC,Instrument flags,absolute air pressure of the measurement (hPa),sample flow rate (lpm),inlet stack bypass flow (lpm),air temperature of the measurement (°C),ambient temperature measured by the external sensor (°C),aerosol sample conditioner tube jacket temperature (°C),OPC LED temperature (°C),internal box temperature (°C),relative humidity of the measurement (%),span deviation,mass concentration of particles derived from Lorenz-Mie calculation of OPC scattering (μg/m³),mass concentration of particles derived from Lorenz-Mie calculation of OPC scattering (μg/m³),mass concentration of particles derived from Lorenz-Mie calculation of OPC scattering (μg/m³)
DateTimeUTC,F1_M11,P_M11,Q1_M11,Q2_M11,T1_M11,T2_M11,T3_M11,T4_M11,T5_M11,U1_M11,ZSPAN_M11,X0_M11,X2_M11,X1_M11
2023-10-14 10:00:00,SystemResetWarning,0836.4,5.01,000.00,027.0,025.4,000.0,035.4,028.6,13.8,0000.0,0004.32,0002.80,0002.53
2023-10-14 10:01:00,SystemResetWarning,0836.4,5.00,000.00,026.9,025.4,000.0,035.4,028.6,13.8,0000.0,0004.28,0002.79,0002.54
2023-10-14 10:02:00,SystemResetWarning,0836.4,5.00,000.00,026.9,025.4,000.0,035.4,028.6,13.8,0000.0,0004.26,0002.76,0002.53
2023-10-14 10:03:00,SystemResetWarning,0836.4,5.00,000.00,026.9,025.4,000.0,035.4,028.6,13.8,0000.0,0004.23,0002.75,0002.52
2023-10-14 10:04:00,SystemResetWarning,0836.4,4.99,000.00,026.9,025.4,000.0,035.4,028.6,13.8,0000.0,0004.27,0002.75,0002.53
2023-10-14 10:05:00,SystemResetWarning,0836.4,4.99,000.00,026.9,025.4,000.0,035.4,028.6,13.8,0000.0,0004.31,0002.78,0002.54
2023-10-14 10:06:00,SystemResetWarning,0836.4,5.00,000.00,026.9,025.4,000.0,035.4,028.6,13.8,0000.0,0004.43,0002.79,0002.53
2023-10-14 10:07:00,SystemResetWarning,0836.4,5.01,000.00,026.9,025.4,000.0,035.4,028.6,13.8,0000.0,0004.46,0002.79,0002.52
2023-10-14 10:08:00,SystemResetWarning,0836.4,5.01,000.00,026.9,025.4,000.0,035.4,028.6,13.8,0000.0,0004.49,0002.83,0002.53
2023-10-14 10:09:00,SystemResetWarning,0836.4,5.00,000.00,026.9,025.4,000.0,035.3,028.6,13.8,0000.0,0003.94,0002.85,0002.54
2023-10-14 10:10:00,SystemResetWarning,0836.4,5.00,000.00,026.9,025.4,000.0,035.3,028.6,13.8,0000.0,0003.95,0002.84,0002.54
2023-10-14 10:11:00,SystemResetWarning,0836.3,5.00,000.00,026.9,025.4,000.0,035.3,028.6,13.8,0000.0,0003.90,0002.82,0002.55
2023-10-14 10:12:00,SystemResetWarning,0836.3,5.00,000.00,026.9,025.4,000.0,035.3,028.6,13.9,0000.0,0003.86,0002.82,0002.56
2023-10-14 10:13:00,SystemResetWarning,0836.3,5.00,000.00,026.9,025.4,000.0,035.3,028.6,13.9,0000.0,0003.87,0002.83,0002.56
2023-10-14 10:14:00,SystemResetWarning,0836.3,4.99,000.00,026.9,025.3,000.0,035.3,028.5,13.9,0000.0,0003.88,0002.81,0002.56
2023-10-14 10:15:00,SystemResetWarning,0836.4,5.00,000.00,026.9,025.3,000.0,035.3,028.5,13.9,0000.0,0003.85,0002.82,0002.56
2023-10-14 10:16:00,SystemResetWarning,0836.4,5.01,000.00,026.8,025.3,000.0,035.3,028.4,13.9,0000.0,0004.40,0002.84,0002.56
2023-10-14 10:17:00,SystemResetWarning,0836.4,5.01,000.00,026.8,025.2,000.0,035.3,028.4,13.9,0000.0,0004.81,0002.84,0002.56
2023-10-14 10:18:00,SystemResetWarning,0836.3,5.00,000.00,026.8,025.1,000.0,035.3,028.4,13.9,0000.0,0004.78,0002.83,0002.57
2023-10-14 10:19:00,SystemResetWarning,0836.3,5.00,000.00,026.8,025.1,000.0,035.3,028.3,13.9,0000.0,0004.76,0002.82,0002.57
2023-10-14 10:20:00,SystemResetWarning,0836.2,4.99,000.00,026.7,025.1,000.0,035.3,028.3,13.9,0000.0,0004.59,0002.77,0002.56
2023-10-14 10:21:00,SystemResetWarning,0836.3,4.99,000.00,026.7,025.0,000.0,035.3,028.3,13.8,0000.0,0004.61,0002.78,0002.55
2023-10-14 10:22:00,SystemResetWarning,0836.2,5.00,000.00,026.7,025.0,000.0,035.2,028.2,13.9,0000.0,0004.55,0002.75,0002.54
2023-10-14 10:23:00,SystemResetWarning,0836.2,5.00,000.00,026.7,025.0,000.0,035.2,028.2,13.9,0000.0,0004.52,0002.73,0002.52
2023-10-14 10:24:00,SystemResetWarning,0836.3,5.00,000.00,026.6,024.9,000.0,035.2,028.1,13.9,0000.0,0004.54,0002.72,0002.50
2023-10-14 10:25:00,SystemResetWarning,0836.3,5.01,000.00,026.6,024.9,000.0,035.2,028.1,14.0,0000.0,0004.44,0002.70,0002.48
2023-10-14 10:26:00,SystemResetWarning,0836.4,5.00,000.00,026.6,024.9,000.0,035.2,028.1,14.0,0000.0,0004.42,0002.70,0002.46
2023-10-14 10:27:00,SystemResetWarning,0836.4,5.00,000.00,026.5,024.9,000.0,035.2,028.0,14.0,0000.0,0004.18,0002.69,0002.44
2023-10-14 10:28:00,SystemResetWarning,0836.4,4.99,000.00,026.5,024.9,000.0,035.1,028.0,14.0,0000.0,0003.40,0002.67,0002.41
2023-10-14 10:29:00,SystemResetWarning,0836.4,4.99,000.00,026.5,024.9,000.0,035.1,028.0,14.0,0000.0,0003.43,0002.65,0002.38
2023-10-14 10:30:00,SystemResetWarning,0836.4,5.00,000.00,026.5,024.9,000.0,035.1,028.1,14.0,0000.0,0003.48,0002.65,0002.34
2023-10-14 10:31:00,SystemResetWarning,0836.4,5.01,000.00,026.5,024.9,000.0,035.1,028.1,14.0,0000.0,0003.57,0002.67,0002.33
2023-10-14 10:32:00,SystemResetWarning,0836.4,5.01,000.00,026.5,024.9,000.0,035.1,028.0,14.0,0000.0,0003.56,0002.66,0002.30
2023-10-14 10:33:00,SystemResetWarning,0836.4,5.00,000.00,026.5,024.9,000.0,035.1,028.0,14.0,0000.0,0004.31,0002.64,0002.28
2023-10-14 10:34:00,SystemResetWarning,0836.4,5.00,000.00,026.5,024.9,000.0,035.0,028.0,14.0,0000.0,0004.49,0002.63,0002.25
2023-10-14 10:35:00,SystemResetWarning,0836.4,4.99,000.00,026.5,024.9,000.0,035.0,028.0,14.0,0000.0,0004.42,0002.59,0002.24
2023-10-14 10:36:00,SystemResetWarning,0836.3,4.99,000.00,026.5,024.9,000.0,035.0,028.1,14.0,0000.0,0004.42,0002.59,0002.25
2023-10-14 10:37:00,SystemResetWarning,0836.3,5.01,000.00,026.5,024.9,000.0,035.0,028.1,14.1,0000.0,0004.37,0002.57,0002.23
2023-10-14 10:38:00,SystemResetWarning,0836.4,5.01,000.00,026.4,024.9,000.0,035.0,028.1,14.1,0000.0,0004.28,0002.53,0002.22
2023-10-14 10:39:00,SystemResetWarning,0836.4,4.99,000.00,026.4,024.9,000.0,035.0,028.0,14.1,0000.0,0004.28,0002.51,0002.22
2023-10-14 10:40:00,SystemResetWarning,0836.4,5.00,000.00,026.4,024.8,000.0,035.0,028.0,14.1,0000.0,0004.19,0002.49,0002.22
2023-10-14 10:41:00,SystemResetWarning,0836.4,5.00,000.00,026.4,024.8,000.0,035.0,028.0,14.1,0000.0,0004.12,0002.48,0002.23
2023-10-14 10:42:00,SystemResetWarning,0836.4,5.00,000.00,026.4,024.8,000.0,035.0,028.0,14.1,0000.0,0004.14,0002.46,0002.23
2023-10-14 10:43:00,SystemResetWarning,0836.3,4.99,000.00,026.4,024.8,000.0,034.9,027.9,14.1,0000.0,0004.11,0002.44,0002.23
2023-10-14 10:44:00,SystemResetWarning,0836.3,5.00,000.00,026.4,024.8,000.0,034.9,027.9,14.1,0000.0,0003.48,0002.44,0002.25
2023-10-14 10:45:00,SystemResetWarning,0836.3,5.00,000.00,026.4,024.8,000.0,034.9,027.9,14.1,0000.0,0003.21,0002.45,0002.26
2023-10-14 10:46:00,SystemResetWarning,0836.4,5.00,000.00,026.3,024.7,000.0,034.9,027.9,14.0,0000.0,0003.26,0002.47,0002.27
2023-10-14 10:47:00,SystemResetWarning,0836.4,5.00,000.00,026.3,024.7,000.0,034.9,027.9,14.0,0000.0,0003.22,0002.46,0002.28
2023-10-14 10:48:00,SystemResetWarning,0836.4,5.00,000.00,026.3,024.7,000.0,034.9,027.9,14.0,0000.0,0003.21,0002.45,0002.26
2023-10-14 10:49:00,SystemResetWarning,0836.4,5.00,000.00,026.3,024.7,000.0,034.9,027.9,14.0,0000.0,0003.34,0002.50,0002.28
2023-10-14 10:50:00,SystemResetWarning,0836.4,5.00,000.00,026.3,024.7,000.0,034.9,027.9,14.0,0000.0,0003.37,0002.50,0002.28
2023-10-14 10:51:00,SystemResetWarning,0836.4,5.00,000.00,026.3,024.7,000.0,034.9,027.9,14.0,0000.0,0003.35,0002.49,0002.27
2023-10-14 10:52:00,SystemResetWarning,0836.5,5.00,000.00,026.3,024.7,000.0,034.8,027.9,14.1,0000.0,0005.21,0002.46,0002.26
2023-10-14 10:53:00,SystemResetWarning,0836.5,5.00,000.00,026.3,024.7,000.0,034.8,027.9,14.1,0000.0,0005.75,0002.48,0002.27
2023-10-14 10:54:00,SystemResetWarning,0836.5,5.00,000.00,026.3,024.7,000.0,034.8,027.9,14.1,0000.0,0005.72,0002.49,0002.29
2023-10-14 10:55:00,SystemResetWarning,0836.4,5.00,000.00,026.3,024.7,000.0,034.8,027.9,14.1,0000.0,0005.80,0002.51,0002.30
2023-10-14 10:56:00,SystemResetWarning,0836.4,5.00,000.00,026.2,024.7,000.0,034.8,027.8,14.1,0000.0,0005.76,0002.50,0002.29
2023-10-14 10:57:00,SystemResetWarning,0836.4,5.01,000.00,026.2,024.6,000.0,034.8,027.8,14.0,0000.0,0005.77,0002.51,0002.30
2023-10-14 10:58:00,SystemResetWarning,0836.4,5.00,000.00,026.2,024.6,000.0,034.8,027.9,13.9,0000.0,0005.82,0002.54,0002.31
2023-10-14 10:59:00,SystemResetWarning,0836.4,5.00,000.00,026.2,024.7,000.0,034.7,027.9,13.9,0000.0,0005.87,0002.56,0002.32
